�������C�����ː����j�^�v���󋵏��
Date,Time,Cs137(Bq/L),Cs134(Bq/L),�S��(Bq/L)
2020/04/20,00:00,0.46,ND,34
2020/04/20,00:10,0.46,ND,33
2020/04/20,00:20,0.44,ND,35
2020/04/20,00:30,0.45,ND,38
2020/04/20,00:40,0.44,ND,35
2020/04/20,00:50,0.44,ND,37
2020/04/20,01:00,0.44,ND,36
2020/04/20,01:10,0.45,ND,38
2020/04/20,01:20,0.46,ND,36
2020/04/20,01:30,0.47,ND,36
2020/04/20,01:40,0.47,ND,37
2020/04/20,01:50,0.47,ND,37
2020/04/20,02:00,0.47,ND,38
2020/04/20,02:10,0.46,ND,35
2020/04/20,02:20,0.47,ND,35
2020/04/20,02:30,0.46,ND,34
2020/04/20,02:40,0.48,ND,35
2020/04/20,02:50,0.48,ND,34
2020/04/20,03:00,0.49,ND,36
2020/04/20,03:10,0.50,ND,38
2020/04/20,03:20,0.48,ND,39
2020/04/20,03:30,0.48,ND,40
2020/04/20,03:40,0.47,ND,41
2020/04/20,03:50,0.49,ND,40
2020/04/20,04:00,0.47,ND,38
2020/04/20,04:10,0.47,ND,37
2020/04/20,04:20,0.50,ND,39
2020/04/20,04:30,0.52,ND,41
2020/04/20,04:40,0.50,ND,37
2020/04/20,04:50,0.48,ND,35
2020/04/20,05:00,0.51,ND,36
2020/04/20,05:10,0.49,ND,37
2020/04/20,05:20,0.49,ND,36
2020/04/20,05:30,0.50,ND,38
2020/04/20,05:40,0.46,ND,41
2020/04/20,05:50,0.52,ND,42
2020/04/20,06:00,-,-,43
2020/04/20,06:10,-,-,40
2020/04/20,06:20,-,-,40
2020/04/20,06:30,-,-,36
2020/04/20,06:40,-,-,36
2020/04/20,06:50,-,-,36
2020/04/20,07:00,-,-,36
2020/04/20,07:10,-,-,38
2020/04/20,07:20,-,-,39
2020/04/20,07:30,-,-,40
2020/04/20,07:40,-,-,37
2020/04/20,07:50,-,-,39
2020/04/20,08:00,-,-,40
2020/04/20,08:10,-,-,42
2020/04/20,08:20,-,-,38
2020/04/20,08:30,-,-,36
2020/04/20,08:40,-,-,38
2020/04/20,08:50,-,-,34
2020/04/20,09:00,-,-,36
2020/04/20,09:10,-,-,36
2020/04/20,09:20,-,-,38
2020/04/20,09:30,-,-,41
2020/04/20,09:40,-,-,42
2020/04/20,09:50,-,-,43
2020/04/20,10:00,-,-,43
2020/04/20,10:10,-,-,44
2020/04/20,10:20,-,-,47
2020/04/20,10:30,-,-,45
2020/04/20,10:40,-,-,43
2020/04/20,10:50,-,-,45
2020/04/20,11:00,-,-,44
2020/04/20,11:10,-,-,43
2020/04/20,11:20,-,-,42
2020/04/20,11:30,-,-,43
2020/04/20,11:40,-,-,44
2020/04/20,11:50,-,-,43
2020/04/20,12:00,-,-,41
2020/04/20,12:10,-,-,40
2020/04/20,12:20,-,-,40
2020/04/20,12:30,-,-,40
2020/04/20,12:40,-,-,40
2020/04/20,12:50,-,-,42
2020/04/20,13:00,-,-,45
2020/04/20,13:10,-,-,47
2020/04/20,13:20,-,-,45
2020/04/20,13:30,-,-,46
2020/04/20,13:40,-,-,47
2020/04/20,13:50,-,-,44
2020/04/20,14:00,-,-,43
2020/04/20,14:10,-,-,39
2020/04/20,14:20,-,-,41
2020/04/20,14:30,-,-,42
2020/04/20,14:40,-,-,41
2020/04/20,14:50,-,-,43
2020/04/20,15:00,-,-,40
2020/04/20,15:10,-,-,42
2020/04/20,15:20,-,-,43
2020/04/20,15:30,-,-,45
2020/04/20,15:40,-,-,45
2020/04/20,15:50,-,-,45
2020/04/20,16:00,-,-,48
2020/04/20,16:10,-,-,50
2020/04/20,16:20,-,-,50
2020/04/20,16:30,-,-,49
2020/04/20,16:40,-,-,49
2020/04/20,16:50,-,-,50
2020/04/20,17:00,-,-,51
2020/04/20,17:10,-,-,50
2020/04/20,17:20,-,-,52
2020/04/20,17:30,-,-,52
2020/04/20,17:40,-,-,54
2020/04/20,17:50,-,-,53
2020/04/20,18:00,-,-,55
2020/04/20,18:10,-,-,52
2020/04/20,18:20,-,-,48
2020/04/20,18:30,-,-,44
2020/04/20,18:40,-,-,42
2020/04/20,18:50,-,-,42
2020/04/20,19:00,-,-,39
2020/04/20,19:10,-,-,41
2020/04/20,19:20,-,-,46
2020/04/20,19:30,-,-,48
2020/04/20,19:40,-,-,48
2020/04/20,19:50,-,-,48
2020/04/20,20:00,-,-,52
2020/04/20,20:10,-,-,54
2020/04/20,20:20,-,-,51
2020/04/20,20:30,-,-,51
2020/04/20,20:40,-,-,52
2020/04/20,20:50,-,-,54
2020/04/20,21:00,-,-,54
2020/04/20,21:10,-,-,52
2020/04/20,21:20,-,-,52
2020/04/20,21:30,-,-,54
2020/04/20,21:40,-,-,51
2020/04/20,21:50,-,-,54
2020/04/20,22:00,-,-,52
2020/04/20,22:10,-,-,52
2020/04/20,22:20,-,-,55
2020/04/20,22:30,-,-,53
2020/04/20,22:40,-,-,51
2020/04/20,22:50,-,-,48
2020/04/20,23:00,-,-,48
2020/04/20,23:10,-,-,48
2020/04/20,23:20,-,-,47
2020/04/20,23:30,-,-,50
2020/04/20,23:40,-,-,53
2020/04/20,23:50,-,-,53
